Details for Ryanair at EDLV




Go Back


Latest METAR
Local Time

EDLV 180620Z 19005KT 150V210 CAVOK 15/14 Q1022
18/08/2018, 08:26:59

Description
Results
Ryanair Logo
Number of Pilots based at EDLV
0 Pilots Based here
Number of Ryanair Flights Departed from EDLV
1 Flights Departed
Number of Ryanair Flights Arrived at EDLV
1 Flights Arrived
Number of Ryanair Schedules Departing from EDLV
73 Schedules
Number of Ryanair Schedules Arriving at EDLV
74 Schedules
Number of Ryanair Schedules Departing from EDLV availible today
21 Schedules Today
Number of Ryanair Schedules Arriving at EDLV availible today
21 Schedules Today
Average Landing Rate at EDLV
-199 fpm
Ryanair Average Landing Rate at EDLV
-133 fpm
Total Fuel Purchased at EDLV by Ryanair
7,245.23 kgs / 15,972.83 lbs

Pilots Based at EDLV


Pilot ID
Pilot Name
Pilot Rank
No. of Flights
No. of Flying Hours
There are no pilots assigned to this hub!   Will you be the first?
Content